Location: Unspecified
(0.0000°N, 0.0000°E)
Time: 02:05:26
(UTC+01:00)

SWIFT - Visible Passes

Search period start: 24 November 2014 00:00
Search period end: 04 December 2014 00:00
Orbit: 558 x 575 km, 20.6° (Epoch: 23 November)

Date Brightness Start Highest point End Pass type
(mag) Time Alt. Az. Time Alt. Az. Time Alt. Az.
24 Nov 5.2 06:13:31 10° S 06:14:58 11° SSE 06:16:25 10° SE visible
24 Nov 2.8 19:52:36 10° NW 19:56:43 42° NNE 19:58:02 33° ENE visible
25 Nov 5.0 06:11:02 10° SSW 06:13:36 15° SSE 06:16:09 10° SE visible
25 Nov 2.4 19:50:55 10° WNW 19:55:13 63° NNE 19:57:21 28° E visible
26 Nov 4.7 06:08:55 10° SSW 06:12:10 21° SSE 06:15:25 10° ESE visible
26 Nov 2.3 19:49:21 10° WNW 19:53:42 87° SSW 19:56:43 20° ESE visible
26 Nov 5.6 21:32:29 10° WSW 21:32:40 11° WSW 21:32:40 11° WSW visible
27 Nov 5.3 04:27:55 10° SSE 04:28:10 10° SSE 04:28:24 10° SSE visible
27 Nov 4.2 06:06:59 10° SW 06:10:43 29° SSE 06:14:26 10° E visible
27 Nov 2.9 19:47:53 10° W 19:52:10 58° SSW 19:56:05 12° ESE visible
27 Nov 5.6 21:31:37 10° WSW 21:32:02 12° WSW 21:32:02 12° WSW visible
28 Nov 5.1 04:26:48 14° SSE 04:26:48 14° SSE 04:28:56 10° SE visible
28 Nov 3.5 06:05:10 10° SW 06:09:13 42° SSE 06:13:15 10° E visible
28 Nov 3.7 19:46:34 10° W 19:50:39 39° SSW 19:54:44 10° SE visible
28 Nov 5.6 21:31:04 10° SW 21:31:21 11° SW 21:31:21 11° SW visible
29 Nov 4.9 04:26:02 18° SSE 04:26:02 18° SSE 04:28:20 10° ESE visible
29 Nov 2.8 06:03:27 10° WSW 06:07:41 63° SSE 06:11:54 10° ENE visible
29 Nov 4.3 19:45:23 10° W 19:49:08 28° SSW 19:52:53 10° SE visible
30 Nov 4.8 04:25:20 21° SE 04:25:20 21° SE 04:27:25 10° ESE visible
30 Nov 2.3 06:01:52 10° WSW 06:06:08 86° NNW 06:10:24 10° ENE visible
30 Nov 4.8 19:44:24 10° WSW 19:47:38 20° SSW 19:50:52 10° SSE visible
01 Dec 4.8 04:24:39 20° ESE 04:24:39 20° ESE 04:26:17 10° E visible
01 Dec 2.5 06:00:37 11° W 06:04:35 57° NNW 06:08:45 10° ENE visible
01 Dec 5.1 19:43:39 10° SW 19:46:09 15° SSW 19:48:41 10° SSE visible
02 Dec 5.0 04:23:57 17° E 04:23:57 17° E 04:24:58 10° E visible
02 Dec 3.0 05:59:55 15° W 06:03:01 38° NNW 06:06:59 10° NE visible
02 Dec 5.3 19:43:23 10° SSW 19:44:43 11° SSW 19:46:03 10° S visible
03 Dec 5.3 04:23:13 12° ENE 04:23:13 12° ENE 04:23:30 10° ENE visible
03 Dec 3.5 05:59:10 17° WNW 06:01:29 27° NNW 06:05:05 10° NE visible
